Flag for Indonesia Weather past 2 weeks in Makassar, South Sulawesi, Indonesia

Now
75 °F

Passing clouds.


Feels Like: 74 °F
Forecast: 78 / 86 °F
Wind: 3 mph from East

Location: Ujung Pandang / Hasanuddin


UV Index: 7 (High)

Visibility: 5 mi


Pressure: 29.80 "Hg

Humidity: 94%

Dew point: 73 °F

Location of MakassarLocation

Historic Weather in Makassar

°F

Makassar temperature yesterday

Maximum temperature yesterday: 88 °F (at 10:00 AM)
Minimum temperature yesterday: 75 °F (at 5:00 AM)
Average temperature yesterday: 81 °F

Past Weeks' High & Low Weather Summary

 TemperatureHumidityPressure
High90 °F (Apr 3, 10:00 AM)100% (Apr 3, 5:00 AM)29.95 "Hg (Apr 3, 5:00 AM)
Low73 °F (Apr 6, 3:00 AM)59% (Apr 10, 2:30 PM)29.74 "Hg (Apr 3, 3:00 PM)
Average80 °F88%29.84 "Hg
* Reported Apr 3 5:00 AM — Apr 18 5:00 AM, Makassar, Weather by CustomWeather, © 2014

Note: Actual official high and low records may vary slightly from our data, if they occured in-between our weather recording intervals... More about our weather records

Advertising

Historic Weather Conditions — Data for Previous 24 hours

 ConditionsComfort  
Time TempWeatherWind HumidityBarometerVisibility
5:00 AM
Apr 18
75 °FPassing clouds.3 mph100%29.80 "Hg5 mi
4:30 AM75 °FPassing clouds.2 mph100%29.80 "Hg5 mi
4:00 AMN/AClear.N/AN/A29.80 "Hg5 mi
3:30 AM75 °FClear.3 mph100%29.80 "Hg5 mi
3:00 AM77 °FPassing clouds.3 mph94%29.80 "Hg5 mi
2:30 AM77 °FPassing clouds.3 mph94%29.80 "Hg5 mi
2:00 AM77 °FPassing clouds.No wind94%29.80 "Hg5 mi
1:00 AM77 °FPassing clouds.2 mph94%29.80 "Hg5 mi
12:30 AM77 °FPassing clouds.3 mph94%29.83 "Hg5 mi
12:00 AM77 °FPassing clouds.2 mph94%29.83 "Hg5 mi
11:30 PM
Apr 17
77 °FPassing clouds.3 mph94%29.83 "Hg5 mi
11:00 PM77 °FPassing clouds.3 mph100%29.86 "Hg5 mi
10:30 PM77 °FPassing clouds.3 mph100%29.86 "Hg5 mi
10:00 PM77 °FPassing clouds.2 mph100%29.86 "Hg5 mi
9:30 PM77 °FPassing clouds.5 mph100%29.86 "Hg5 mi
9:00 PM77 °FPassing clouds.5 mph94%29.86 "Hg5 mi
8:30 PM77 °FLight rain. Passing clouds.1 mph89%29.86 "Hg4 mi
8:00 PM79 °FThunderstorms. Passing clouds.6 mph94%N/A3 mi
7:30 PM81 °FPassing clouds.5 mph89%29.83 "Hg5 mi
7:00 PM81 °FPassing clouds.5 mph89%29.83 "Hg5 mi
6:30 PM82 °FPassing clouds.6 mph89%29.80 "Hg5 mi
6:00 PM82 °FScattered clouds.1 mph79%29.80 "Hg6 mi
5:30 PM84 °FScattered clouds.2 mph74%29.80 "Hg6 mi
5:00 PM84 °FScattered clouds.3 mph79%29.77 "Hg6 mi
4:30 PM84 °FThunderstorms. Scattered clouds.5 mph74%N/A6 mi
4:00 PM84 °FThunderstorms. Scattered clouds.7 mph74%N/A6 mi
3:30 PM84 °FScattered clouds.7 mph79%29.77 "Hg6 mi
3:00 PM84 °FThunderstorms. Scattered clouds.10 mph79%29.77 "Hg6 mi
2:30 PM86 °FScattered clouds.9 mph75%29.77 "Hg6 mi
2:00 PM86 °FScattered clouds.9 mph75%29.77 "Hg6 mi
1:30 PM88 °FScattered clouds.9 mph70%29.77 "HgN/A
1:00 PM88 °FScattered clouds.9 mph70%29.80 "HgN/A
12:30 PM88 °FScattered clouds.9 mph70%29.80 "HgN/A
12:00 PM88 °FScattered clouds.9 mph70%29.83 "HgN/A
11:30 AM88 °FScattered clouds.7 mph70%29.83 "HgN/A
11:00 AM88 °FScattered clouds.7 mph66%29.83 "HgN/A
10:30 AM88 °FScattered clouds.5 mph66%29.86 "HgN/A
10:00 AM88 °FPassing clouds.3 mph66%29.86 "HgN/A
9:30 AM86 °FPassing clouds.3 mph75%29.86 "HgN/A
9:00 AM84 °FPassing clouds.3 mph79%29.86 "HgN/A
8:30 AM81 °FPassing clouds.3 mph89%29.83 "HgN/A
8:00 AM79 °FPassing clouds.5 mph94%29.83 "HgN/A
7:30 AM79 °FPassing clouds.3 mph94%29.83 "HgN/A
7:00 AM77 °FPassing clouds.2 mph94%29.83 "Hg6 mi
6:30 AM75 °FPassing clouds.3 mph94%29.80 "Hg6 mi
6:00 AM75 °FPassing clouds.3 mph94%29.83 "Hg6 mi
Weather by CustomWeather, © 2014

See weather overview